"2010-09-16 00:00:00",164461,3.462,116.9,2.111,0.156,20.26,109.2438,22.95,23.85,16.15,0,111.1,13.14,23.78,78.9
"2010-09-16 00:00:30",164462,2.843,114.7,4.481,0.252,20.25,109.2426,22.95,23.85,16.12,0,111.1,13.14,23.78,76.7
"2010-09-16 00:01:00",164463,2.772,120.3,3.188,0.157,20.25,109.2411,22.95,23.86,16.01,0,111.1,13.14,23.78,82.3
"2010-09-16 00:01:30",164464,2.58,120.8,3.277,0.239,20.25,109.2438,22.95,23.84,16.09,0,111.1,13.14,23.78,82.8
"2010-09-16 00:02:00",164465,3.479,118.9,3.169,0.278,20.27,109.2398,22.94,23.84,15.92,0,111.1,13.14,23.77,80.9
"2010-09-16 00:02:30",164466,3.481,124.5,2.715,0.206,20.29,109.2401,22.94,23.84,15.99,0,111.1,13.14,23.77,86.5
"2010-09-16 00:03:00",164467,3.394,122.8,3.643,0.327,20.28,109.2414,22.95,23.85,15.92,0,111.1,13.14,23.78,84.8
"2010-09-16 00:03:30",164468,3.723,124.7,2.901,0.147,20.3,109.2383,22.94,23.83,16.01,0,111.1,13.14,23.77,86.7
"2010-09-16 00:04:00",164469,3.604,123.5,3.025,0.08,20.27,109.2395,22.94,23.84,15.77,0,111.1,13.15,23.77,85.5
"2010-09-16 00:04:30",164470,3.806,127,1.901,0.152,20.31,109.2398,22.94,23.84,15.7,0,111.1,13.14,23.77,89.0
"2010-09-16 00:05:00",164471,4.296,127.7,4.328,0.227,20.34,109.2383,22.94,23.85,15.79,0,111.1,13.15,23.77,89.7
"2010-09-16 00:05:30",164472,4.288,117.7,4.705,0.322,20.35,109.2404,22.94,23.85,15.82,0,111.1,13.15,23.78,79.7
"2010-09-16 00:06:00",164473,3.876,118.8,2.086,0.265,20.35,109.2407,22.94,23.86,15.82,0,111.1,13.15,23.78,80.8
"2010-09-16 00:06:30",164474,3.968,119.4,5.13,0.16,20.39,109.2416,22.95,23.84,15.81,0,111.1,13.15,23.78,81.4
"2010-09-16 00:07:00",164475,4.002,115.4,4.73,0.175,20.31,109.2444,22.95,23.86,15.79,0,111.1,13.15,23.79,77.4
"2010-09-16 00:07:30",164476,4.038,116.3,3.507,0.246,20.38,109.2409,22.94,23.86,15.92,0,111.1,13.15,23.78,78.3
"2010-09-16 00:08:00",164477,4.314,118.5,1.728,0.222,20.39,109.2407,22.94,23.86,16.02,0,111.1,13.15,23.78,80.5
"2010-09-16 00:08:30",164478,4.625,117.9,1.418,0.143,20.39,109.2417,22.95,23.85,16.05,0,111.1,13.15,23.78,79.9
"2010-09-16 00:09:00",164479,4.633,116.4,1.265,0.104,20.41,109.2398,22.94,23.84,15.8,0,111.1,13.15,23.77,78.4
"2010-09-16 00:09:30",164480,4.58,118.8,0.755,0.06,20.41,109.2453,22.96,23.85,15.56,0,111.1,13.15,23.79,80.8
"2010-09-16 00:10:00",164481,4.379,120.8,2.148,0.13,20.43,109.2457,22.96,23.85,15.7,0,111.1,13.15,23.79,82.8
"2010-09-16 00:10:30",164482,4.034,121.9,1.51,0.069,20.42,109.2453,22.96,23.82,15.52,0,111.1,13.15,23.79,83.9
"2010-09-16 00:11:00",164483,4.22,120.3,2.505,0.213,20.51,109.2512,22.97,23.84,15.49,0,111.1,13.15,23.80,82.3
"2010-09-16 00:11:30",164484,3.84,116.7,3.078,0.207,20.54,109.2527,22.97,23.84,15.87,0,111.1,13.15,23.81,78.7
"2010-09-16 00:12:00",164485,4.391,115,2.778,0.403,20.55,109.2539,22.98,23.83,15.87,0,111.1,13.15,23.81,77.0
"2010-09-16 00:12:30",164486,4.123,113.9,2.726,0.177,20.57,109.2561,22.98,23.83,15.89,0,111.1,13.15,23.82,75.9
"2010-09-16 00:13:00",164487,3.915,118.2,2.044,0.112,20.56,109.2567,22.99,23.84,15.8,0,111.1,13.15,23.82,80.2
"2010-09-16 00:13:30",164488,4.045,113.2,2.724,0.194,20.57,109.2585,22.99,23.84,15.84,0,111.1,13.15,23.82,75.2
"2010-09-16 00:14:00",164489,4.187,117.1,3.456,0.229,20.57,109.2601,22.99,23.84,15.77,0,111.1,13.15,23.83,79.1
"2010-09-16 00:14:30",164490,3.507,115.9,2.974,0.091,20.53,109.261,23,23.85,15.66,0,111.1,13.14,23.83,77.9
"2010-09-16 00:15:00",164491,3.643,122.3,3.433,0.206,20.54,109.2613,23,23.85,15.76,0,111.1,13.14,23.83,84.3
"2010-09-16 00:15:30",164492,4.03,111.2,4.164,0.329,20.62,109.2619,23,23.84,15.8,0,111.1,13.14,23.83,73.2
"2010-09-16 00:16:00",164493,3.961,112,2.397,0.169,20.57,109.2622,23,23.85,15.92,0,111.1,13.14,23.83,74.0
"2010-09-16 00:16:30",164494,4.039,116.5,3.204,0.417,20.61,109.2625,23,23.84,15.92,0,111.1,13.14,23.83,78.5
"2010-09-16 00:17:00",164495,4.575,112.5,2.604,0.121,20.6,109.2625,23,23.83,15.85,0,111.1,13.14,23.83,74.5
"2010-09-16 00:17:30",164496,4.46,113.2,2.933,0.114,20.6,109.2623,23,23.85,15.85,0,111.1,13.14,23.83,75.2
"2010-09-16 00:18:00",164497,4.279,117.4,4.372,0.239,20.61,109.2609,23,23.83,15.88,0,111.1,13.14,23.83,79.4
"2010-09-16 00:18:30",164498,4.819,124.4,0.767,0.083,20.59,109.2547,22.98,23.83,14.97,0,111,13.14,23.81,86.4
"2010-09-16 00:19:00",164499,4.586,123.5,0.974,0.109,20.72,109.2438,22.95,23.83,14.84,0,111,13.14,23.78,85.5
"2010-09-16 00:19:30",164500,4.849,121.9,1.641,0.324,20.72,109.2394,22.94,23.83,15.6,0,111,13.14,23.77,83.9
"2010-09-16 00:20:00",164501,4.786,120.8,1.214,0.226,20.75,109.2371,22.93,23.81,15.94,0,111,13.15,23.77,82.8
"2010-09-16 00:20:30",164502,4.907,120,2.152,0.114,20.76,109.2356,22.93,23.81,15.93,0,111,13.15,23.76,82.0
"2010-09-16 00:21:00",164503,4.746,116.2,2.886,0.139,20.79,109.234,22.93,23.79,16.33,0,111,13.15,23.76,78.2
"2010-09-16 00:21:30",164504,4.315,120.1,2.381,0.205,20.77,109.2368,22.93,23.8,16.17,0,111,13.15,23.77,82.1
"2010-09-16 00:22:00",164505,4.438,120.4,1.73,0.222,20.8,109.2374,22.94,23.79,16.27,0,111,13.15,23.77,82.4
"2010-09-16 00:22:30",164506,4.478,121.8,1.822,0.142,20.8,109.2352,22.93,23.78,16.16,0,111,13.15,23.76,83.8
"2010-09-16 00:23:00",164507,4.371,122.8,1.108,0.197,20.8,109.2209,22.89,23.77,15.94,0,111,13.15,23.73,84.8
"2010-09-16 00:23:30",164508,4.435,124.1,1.499,0.254,20.81,109.2133,22.87,23.77,15.74,0,111,13.15,23.71,86.1
"2010-09-16 00:24:00",164509,4.581,124.8,0.497,0.086,20.86,109.2127,22.87,23.75,15.39,0,111,13.15,23.70,86.8
"2010-09-16 00:24:30",164510,4.616,125,1.219,0.114,20.82,109.2119,22.87,23.74,15.48,0,111,13.15,23.70,87.0
"2010-09-16 00:25:00",164511,4.463,127.1,0.967,0.084,20.77,109.2113,22.87,23.74,15,0,111,13.15,23.70,89.1
"2010-09-16 00:25:30",164512,4.583,124.2,0.761,0.055,20.87,109.2096,22.86,23.75,15.02,0,111,13.15,23.70,86.2
"2010-09-16 00:26:00",164513,4.546,127.2,1.413,0.106,20.86,109.2077,22.86,23.74,15.17,0,111,13.15,23.69,89.2
"2010-09-16 00:26:30",164514,4.65,126.3,0.645,0.045,20.86,109.2046,22.85,23.75,15.28,0,111,13.15,23.68,88.3
"2010-09-16 00:27:00",164515,4.675,127,1.469,0.099,20.87,109.2043,22.85,23.75,15.31,0,111,13.15,23.68,89.0
"2010-09-16 00:27:30",164516,4.612,127.3,1.758,0.113,20.85,109.2043,22.85,23.75,15.29,0,111,13.15,23.68,89.3
"2010-09-16 00:28:00",164517,4.603,127.7,1.33,0.075,20.9,109.2043,22.85,23.74,15.28,0,111,13.15,23.68,89.7
"2010-09-16 00:28:30",164518,4.508,127.2,1.159,0.136,20.87,109.2043,22.85,23.73,15.32,0,111,13.15,23.68,89.2
"2010-09-16 00:29:00",164519,4.326,127.7,0.856,0.068,20.82,109.2043,22.85,23.74,15.41,0,111,13.15,23.68,89.7
"2010-09-16 00:29:30",164520,4.31,128.7,2.681,0.076,20.9,109.2043,22.85,23.74,15.52,0,111,13.15,23.68,90.7
"2010-09-16 00:30:00",164521,4.378,133.6,1.146,0.103,20.9,109.2043,22.85,23.74,15.67,0,111,13.15,23.68,95.6
"2010-09-16 00:30:30",164522,4.445,133.4,0.526,0.093,20.92,109.2046,22.85,23.74,15.92,0,111,13.15,23.68,95.4
"2010-09-16 00:31:00",164523,4.628,131.8,0.858,0.061,20.88,109.2035,22.85,23.72,15.66,0,111,13.16,23.68,93.8
"2010-09-16 00:31:30",164524,4.531,131.3,0.919,0.159,20.91,109.1914,22.82,23.73,15.61,0,111,13.15,23.65,93.3
"2010-09-16 00:32:00",164525,4.781,129.5,1.121,0.091,20.95,109.1828,22.8,23.72,15.5,0,111,13.15,23.63,91.5
"2010-09-16 00:32:30",164526,4.707,132.6,0.98,0.062,20.9,109.1773,22.78,23.71,15.86,0,111,13.15,23.61,94.6
"2010-09-16 00:33:00",164527,4.809,133.4,0.695,0.061,20.87,109.1764,22.78,23.69,16.09,0,111,13.15,23.61,95.4
"2010-09-16 00:33:30",164528,4.749,134.3,1.754,0.077,20.9,109.1749,22.78,23.68,15.95,0,111,13.15,23.61,96.3
"2010-09-16 00:34:00",164529,4.828,134.8,1.23,0.105,20.9,109.175,22.78,23.67,16.1,0,111,13.15,23.61,96.8
"2010-09-16 00:34:30",164530,4.967,133.6,1.673,0.078,20.93,109.1721,22.77,23.67,16,0,111,13.15,23.60,95.6
"2010-09-16 00:35:00",164531,4.8,136.4,1.255,0.092,20.9,109.1655,22.75,23.66,16.12,0,111,13.15,23.58,98.4
"2010-09-16 00:35:30",164532,4.854,136.4,1.082,0.055,20.92,109.1634,22.75,23.65,16.28,0,111,13.15,23.58,98.4
"2010-09-16 00:36:00",164533,4.764,134.8,1.334,0.083,20.91,109.1637,22.75,23.66,16.12,0,111,13.15,23.58,96.8
"2010-09-16 00:36:30",164534,4.786,135.3,1.286,0.077,20.9,109.1665,22.75,23.63,16.15,0,111,13.15,23.58,97.3
"2010-09-16 00:37:00",164535,4.685,133.6,0.938,0.077,20.88,109.1647,22.75,23.64,16.25,0,111,13.16,23.58,95.6
"2010-09-16 00:37:30",164536,4.57,134.7,1.146,0.087,20.9,109.162,22.74,23.63,16.25,0,111,13.16,23.57,96.7
"2010-09-16 00:38:00",164537,4.796,131.8,1.474,0.091,20.91,109.1639,22.75,23.62,16.28,0,111,13.16,23.58,93.8
"2010-09-16 00:38:30",164538,4.895,130.6,0.687,0.088,20.93,109.1645,22.75,23.62,16.29,0,111,13.16,23.58,92.6
"2010-09-16 00:39:00",164539,4.731,129.3,1.045,0.068,20.92,109.1645,22.75,23.61,16.29,0,111,13.16,23.58,91.3
"2010-09-16 00:39:30",164540,4.749,129.7,1.083,0.085,20.91,109.1654,22.75,23.62,16.28,0,111,13.16,23.58,91.7
"2010-09-16 00:40:00",164541,4.73,131.9,0.669,0.058,20.91,109.1657,22.75,23.59,16.28,0,111,13.16,23.58,93.9
"2010-09-16 00:40:30",164542,4.934,130.3,1.661,0.069,20.95,109.1656,22.75,23.6,16.14,0,111,13.16,23.58,92.3
"2010-09-16 00:41:00",164543,4.979,127.6,0.925,0.066,20.87,109.1623,22.74,23.6,16.14,0,110.9,13.16,23.57,89.6
"2010-09-16 00:41:30",164544,4.961,129.2,1.738,0.134,20.93,109.1593,22.74,23.59,16.06,0,110.9,13.16,23.57,91.2
"2010-09-16 00:42:00",164545,5.128,127,1.411,0.083,20.9,109.1526,22.72,23.6,15.98,0,110.9,13.16,23.55,89.0
"2010-09-16 00:42:30",164546,5.133,127,1.153,0.122,20.9,109.1484,22.71,23.59,15.98,0,110.9,13.16,23.54,89.0
"2010-09-16 00:43:00",164547,5.101,129.3,1.299,0.063,20.88,109.1484,22.71,23.59,15.92,0,110.9,13.16,23.54,91.3
"2010-09-16 00:43:30",164548,4.979,125.3,0.515,0.065,20.86,109.145,22.7,23.59,16.17,0,110.9,13.17,23.53,87.3
"2010-09-16 00:44:00",164549,4.937,125,0.551,0.072,20.87,109.1414,22.69,23.58,16.07,0,110.9,13.17,23.52,87.0
"2010-09-16 00:44:30",164550,4.988,123,1.714,0.118,20.9,109.14,22.69,23.58,15.63,0,110.9,13.16,23.52,85.0
"2010-09-16 00:45:00",164551,5.128,118.6,2.483,0.087,20.95,109.1422,22.69,23.57,15.2,0,110.9,13.17,23.52,80.6
"2010-09-16 00:45:30",164552,5.243,115.9,1.259,0.099,20.91,109.1431,22.69,23.58,15.13,0,110.9,13.17,23.52,77.9
"2010-09-16 00:46:00",164553,4.931,117.4,1.473,0.143,20.91,109.1476,22.7,23.58,15.19,0,110.9,13.17,23.54,79.4
"2010-09-16 00:46:30",164554,4.688,119.8,1.502,0.087,20.87,109.1484,22.71,23.59,15.3,0,110.9,13.17,23.54,81.8
"2010-09-16 00:47:00",164555,4.819,121.8,1.199,0.101,20.87,109.1487,22.71,23.58,15.37,0,110.9,13.17,23.54,83.8
"2010-09-16 00:47:30",164556,4.936,120.3,1.008,0.107,20.91,109.1481,22.71,23.59,15.39,0,110.9,13.17,23.54,82.3
"2010-09-16 00:48:00",164557,4.826,120.3,1.46,0.089,20.88,109.1481,22.71,23.6,15.34,0,110.9,13.17,23.54,82.3
"2010-09-16 00:48:30",164558,4.887,121.5,1.194,0.06,20.93,109.1456,22.7,23.59,15.21,0,110.9,13.17,23.53,83.5
"2010-09-16 00:49:00",164559,4.816,121.5,1.592,0.088,20.92,109.1467,22.7,23.61,15.13,0,110.9,13.17,23.53,83.5
"2010-09-16 00:49:30",164560,4.737,121.4,1.324,0.049,20.89,109.1484,22.71,23.61,15.16,0,110.9,13.17,23.54,83.4
"2010-09-16 00:50:00",164561,4.631,123.4,1.337,0.119,20.91,109.1467,22.7,23.61,15.19,0,110.9,13.17,23.53,85.4
"2010-09-16 00:50:30",164562,5.02,124.5,1.455,0.084,20.92,109.1443,22.7,23.62,15.16,0,110.9,13.17,23.53,86.5
"2010-09-16 00:51:00",164563,4.974,124.6,1.004,0.107,20.9,109.144,22.7,23.61,15.17,0,110.9,13.17,23.53,86.6
"2010-09-16 00:51:30",164564,4.901,122.9,1.232,0.094,20.91,109.1426,22.69,23.61,15.21,0,110.9,13.17,23.52,84.9
"2010-09-16 00:52:00",164565,4.963,121.5,0.735,0.12,20.93,109.1433,22.69,23.61,15.21,0,110.9,13.17,23.53,83.5
"2010-09-16 00:52:30",164566,4.876,120.3,1.571,0.137,20.91,109.1446,22.7,23.62,15.2,0,110.9,13.17,23.53,82.3
"2010-09-16 00:53:00",164567,4.916,116.5,0.896,0.133,20.93,109.1476,22.71,23.62,15.09,0,110.9,13.17,23.54,78.5
"2010-09-16 00:53:30",164568,4.982,114.6,1.855,0.113,20.92,109.151,22.71,23.63,14.96,0,110.9,13.17,23.55,76.6
"2010-09-16 00:54:00",164569,4.819,115.8,0.877,0.077,20.9,109.1528,22.72,23.62,14.95,0,110.9,13.17,23.55,77.8
"2010-09-16 00:54:30",164570,4.828,117.4,1.046,0.059,20.91,109.1587,22.73,23.62,14.86,0,110.9,13.17,23.56,79.4
"2010-09-16 00:55:00",164571,4.902,119.2,1.242,0.061,20.93,109.1627,22.74,23.62,14.79,0,110.9,13.18,23.58,81.2
"2010-09-16 00:55:30",164572,4.964,122.5,1.646,0.2,20.92,109.1642,22.75,23.62,14.76,0,110.9,13.18,23.58,84.5
"2010-09-16 00:56:00",164573,5.051,120.5,1.371,0.088,20.92,109.1664,22.75,23.63,14.77,0,110.9,13.18,23.58,82.5
"2010-09-16 00:56:30",164574,5.011,116.9,2.145,0.197,20.9,109.167,22.75,23.62,14.8,0,110.9,13.18,23.59,78.9
"2010-09-16 00:57:00",164575,5.12,115,1.923,0.08,20.91,109.1676,22.76,23.62,14.72,0,110.9,13.18,23.59,77.0
"2010-09-16 00:57:30",164576,5.126,114.3,1.466,0.131,20.94,109.1682,22.76,23.61,14.79,0,110.9,13.18,23.59,76.3
"2010-09-16 00:58:00",164577,5.197,117.5,2.928,0.12,20.91,109.1682,22.76,23.6,14.94,0,110.9,13.18,23.59,79.5
"2010-09-16 00:58:30",164578,5.188,116.8,1.037,0.094,20.89,109.1694,22.76,23.62,14.93,0,110.9,13.18,23.59,78.8
"2010-09-16 00:59:00",164579,5.141,117.8,1.109,0.084,20.94,109.171,22.77,23.62,14.8,0,110.9,13.18,23.60,79.8
"2010-09-16 00:59:30",164580,5.034,118,0.892,0.059,20.91,109.1731,22.77,23.59,14.94,0,110.9,13.18,23.60,80.0
"2010-09-16 01:00:00",164581,5.068,120,0.666,0.061,20.9,109.1731,22.77,23.61,15.2,0,110.9,13.18,23.60,82.0
"2010-09-16 01:00:30",164582,5.184,120.8,1.378,0.156,20.91,109.1723,22.77,23.61,15.03,0,110.9,13.18,23.60,82.8
"2010-09-16 01:01:00",164583,5.442,120.6,3.029,0.109,20.89,109.1727,22.77,23.6,14.95,0,110.9,13.18,23.60,82.6
"2010-09-16 01:01:30",164584,5.713,116.8,1.824,0.123,20.88,109.1694,22.76,23.6,14.96,0,110.9,13.18,23.59,78.8
"2010-09-16 01:02:00",164585,5.633,113.3,3.374,0.105,20.88,109.1644,22.75,23.6,14.98,0,110.9,13.19,23.58,75.3
"2010-09-16 01:02:30",164586,5.569,104.5,2.57,0.135,20.91,109.1588,22.73,23.61,14.83,0,110.9,13.19,23.57,66.5
"2010-09-16 01:03:00",164587,5.352,110.2,3.589,0.166,20.9,109.1532,22.72,23.59,14.82,0,110.9,13.19,23.55,72.2
"2010-09-16 01:03:30",164588,5.089,113.8,1.934,0.258,20.9,109.1523,22.72,23.59,14.86,0,110.9,13.19,23.55,75.8
"2010-09-16 01:04:00",164589,5.062,115.8,1.313,0.124,20.89,109.1489,22.71,23.58,14.77,0,110.9,13.19,23.54,77.8
"2010-09-16 01:04:30",164590,5.094,115.7,1.287,0.078,20.88,109.1447,22.7,23.58,14.75,0,110.9,13.18,23.53,77.7
"2010-09-16 01:05:00",164591,5.023,115.6,1.911,0.089,20.88,109.1436,22.69,23.59,14.79,0,110.9,13.19,23.53,77.6
"2010-09-16 01:05:30",164592,4.951,114.4,2.033,0.088,20.89,109.1431,22.69,23.58,14.72,0,110.9,13.18,23.52,76.4
"2010-09-16 01:06:00",164593,5.165,112.2,1.719,0.044,20.88,109.1431,22.69,23.58,14.75,0,110.9,13.18,23.52,74.2
"2010-09-16 01:06:30",164594,5.187,107.7,1.467,0.08,20.91,109.1431,22.69,23.57,14.92,0,110.9,13.18,23.52,69.7
"2010-09-16 01:07:00",164595,5.147,105.8,0.74,0.107,20.88,109.1431,22.69,23.57,15.01,0,110.9,13.17,23.52,67.8
"2010-09-16 01:07:30",164596,5.161,105.3,1.078,0.118,20.92,109.1431,22.69,23.57,14.94,0,110.9,13.18,23.52,67.3
"2010-09-16 01:08:00",164597,5.097,106.6,2.197,0.053,20.88,109.1431,22.69,23.56,15.02,0,110.9,13.17,23.52,68.6
"2010-09-16 01:08:30",164598,5.442,104.9,3.798,0.172,20.89,109.1431,22.69,23.55,15.06,0,110.9,13.18,23.52,66.9
"2010-09-16 01:09:00",164599,6.406,99.4,1.783,0.541,20.87,109.1431,22.69,23.57,15.11,0,110.9,13.18,23.52,61.4
"2010-09-16 01:09:30",164600,7.669,94.3,1.611,0.258,20.48,109.1208,22.64,23.54,16.28,0,110.9,13.18,23.47,56.3
"2010-09-16 01:10:00",164601,7.854,96.6,1.311,0.253,20.51,109.1023,22.59,23.51,16.69,0,110.9,13.18,23.42,58.6
"2010-09-16 01:10:30",164602,7.768,100.3,1.335,0.307,20.52,109.0756,22.52,23.47,16.87,0,110.9,13.18,23.35,62.3
"2010-09-16 01:11:00",164603,7.304,96.9,1.385,0.219,20.44,109.0472,22.45,23.43,17.1,0,110.9,13.19,23.28,58.9
"2010-09-16 01:11:30",164604,7.382,97.3,2.943,0.189,20.42,109.0177,22.37,23.37,17.42,0,110.9,13.19,23.20,59.3
"2010-09-16 01:12:00",164605,7.969,95.5,1.612,0.39,20.31,108.987,22.29,23.3,17.66,0,110.9,13.19,23.12,57.5
"2010-09-16 01:12:30",164606,8.44,94.9,2.54,0.457,20.3,108.9538,22.21,23.24,17.85,0,110.9,13.19,23.04,56.9
"2010-09-16 01:13:00",164607,9.89,97.2,1.823,0.284,20.33,108.9347,22.16,23.2,17.94,0,110.9,13.19,22.99,59.2
"2010-09-16 01:13:30",164608,11.38,97.6,1.038,0.456,20.38,108.9077,22.09,23.15,18.06,0,110.9,13.19,22.92,59.6
"2010-09-16 01:14:00",164609,11.53,98.2,0.879,0.17,20.52,108.9066,22.09,23.09,18.05,0,110.9,13.19,22.92,60.2
"2010-09-16 01:14:30",164610,11.17,99.9,0.718,0.21,20.55,108.8852,22.03,23.06,18.08,0,110.9,13.19,22.86,61.9
"2010-09-16 01:15:00",164611,11.02,99.7,0.768,0.145,20.57,108.8731,22,23.02,18.1,0,110.9,13.19,22.83,61.7
"2010-09-16 01:15:30",164612,10.79,100.6,0.575,0.086,20.63,108.8549,21.95,22.98,18.06,0,110.9,13.19,22.78,62.6
"2010-09-16 01:16:00",164613,10.88,100.8,0.589,0.09,20.59,108.8397,21.91,22.94,17.98,0,110.9,13.19,22.74,62.8
"2010-09-16 01:16:30",164614,10.87,100.5,0.457,0.095,20.51,108.84,21.92,22.91,18.06,0,110.9,13.19,22.74,62.5
"2010-09-16 01:17:00",164615,10.54,100.1,0.406,0.097,20.46,108.8192,21.86,22.88,18.2,0,110.9,13.19,22.69,62.1
"2010-09-16 01:17:30",164616,10.69,100.2,0.548,0.065,20.46,108.8081,21.83,22.86,18.37,0,110.9,13.19,22.66,62.2
"2010-09-16 01:18:00",164617,10.87,99.6,0.269,0.138,20.48,108.8096,21.84,22.84,18.44,0,110.9,13.19,22.67,61.6
"2010-09-16 01:18:30",164618,11.04,98.7,0.849,0.229,20.49,108.8006,21.81,22.81,18.51,0,110.9,13.19,22.64,60.7
"2010-09-16 01:19:00",164619,11.38,100,0.487,0.117,20.49,108.7788,21.76,22.78,18.6,0,110.9,13.19,22.59,62.0
"2010-09-16 01:19:30",164620,11.41,102.1,1.112,0.234,20.37,108.778,21.76,22.77,18.66,0,110.9,13.19,22.58,64.1
"2010-09-16 01:20:00",164621,11.78,104,1.667,0.124,20.19,108.7768,21.75,22.75,19.16,0,110.9,13.19,22.58,66.0
"2010-09-16 01:20:30",164622,11.82,106.8,0.742,0.177,20.17,108.7565,21.7,22.73,19.61,0,110.9,13.19,22.53,68.8
"2010-09-16 01:21:00",164623,11.63,106.7,1.079,0.298,20.24,108.7452,21.67,22.69,20.06,0,110.9,13.19,22.50,68.7
"2010-09-16 01:21:30",164624,11.66,108.1,0.753,0.124,20.23,108.7443,21.67,22.67,20.3,0,110.9,13.19,22.50,70.1
"2010-09-16 01:22:00",164625,11.86,109.6,0.701,0.071,20.24,108.7199,21.61,22.64,20.47,0,110.9,13.2,22.43,71.6
"2010-09-16 01:22:30",164626,11.93,109.6,0.951,0.092,20.19,108.7197,21.61,22.61,20.74,0,110.9,13.19,22.43,71.6
"2010-09-16 01:23:00",164627,12.08,108.4,0.269,0.163,20.06,108.7167,21.6,22.6,21.22,0,110.9,13.19,22.43,70.4
"2010-09-16 01:23:30",164628,12.18,108.6,0.422,0.097,19.98,108.6982,21.55,22.57,21.61,0,110.9,13.19,22.38,70.6
"2010-09-16 01:24:00",164629,11.98,110.5,1.046,0.07,19.93,108.6924,21.54,22.54,21.51,0,110.9,13.19,22.36,72.5
"2010-09-16 01:24:30",164630,11.94,109,1.258,0.109,19.93,108.6765,21.5,22.52,21.64,0,110.9,13.19,22.32,71.0
"2010-09-16 01:25:00",164631,12.34,108.5,0.044,0.171,19.96,108.6621,21.46,22.47,21.89,0,110.9,13.19,22.29,70.5
"2010-09-16 01:25:30",164632,12.41,108.4,0.558,0.129,20.01,108.6388,21.4,22.43,22.13,0,110.9,13.19,22.23,70.4
"2010-09-16 01:26:00",164633,12.14,107.8,0.512,0.133,20.06,108.628,21.37,22.4,22.28,0,110.9,13.19,22.20,69.8
"2010-09-16 01:26:30",164634,11.72,107.5,0.267,0.125,20.19,108.6002,21.3,22.34,22.37,0,110.9,13.19,22.13,69.5
"2010-09-16 01:27:00",164635,11.92,107.5,0.04,0.173,20.14,108.601,21.3,22.3,22.16,0,110.9,13.19,22.13,69.5
"2010-09-16 01:27:30",164636,12.2,107.5,0.271,0.066,20.09,108.5808,21.25,22.27,21.75,0,110.9,13.19,22.08,69.5
"2010-09-16 01:28:00",164637,12.12,107.9,0.602,0.049,20,108.5681,21.22,22.21,21.85,0,110.9,13.2,22.04,69.9
"2010-09-16 01:28:30",164638,12.06,106.9,0.591,0.045,20.05,108.5599,21.2,22.19,21.77,0,110.9,13.2,22.02,68.9
"2010-09-16 01:29:00",164639,12.14,106.9,0.533,0.043,20.15,108.5397,21.14,22.16,21.65,0,110.9,13.2,21.97,68.9
"2010-09-16 01:29:30",164640,12.18,107.6,0.366,0.05,20.05,108.5386,21.14,22.13,21.8,0,110.9,13.2,21.97,69.6
"2010-09-16 01:30:00",164641,12.12,108.1,0.531,0.065,19.96,108.5381,21.14,22.11,21.92,0,110.9,13.2,21.97,70.1
"2010-09-16 01:30:30",164642,12.08,108.9,0.498,0.088,19.92,108.5187,21.09,22.08,22.24,0,110.9,13.2,21.92,70.9
"2010-09-16 01:31:00",164643,12.24,109,0.521,0.052,19.9,108.5052,21.06,22.05,22.42,0,110.9,13.2,21.88,71.0
"2010-09-16 01:31:30",164644,12.32,109,0.541,0.086,19.86,108.5049,21.06,22.04,22.47,0,110.8,13.2,21.88,71.0
"2010-09-16 01:32:00",164645,12.15,108,0.598,0.06,19.97,108.4987,21.04,22.01,22.47,0,110.9,13.2,21.86,70.0
"2010-09-16 01:32:30",164646,12.14,108.1,0.533,0.073,19.98,108.4768,20.98,21.98,22.48,0,110.9,13.2,21.81,70.1
"2010-09-16 01:33:00",164647,12.12,108.3,0.399,0.073,19.93,108.4711,20.97,21.95,22.52,0,110.9,13.2,21.79,70.3
"2010-09-16 01:33:30",164648,12.2,108.8,0.502,0.063,19.88,108.4711,20.97,21.93,22.64,0,110.8,13.2,21.79,70.8
"2010-09-16 01:34:00",164649,12.12,108.8,0.49,0.062,19.89,108.4709,20.97,21.92,22.71,0,110.8,13.2,21.79,70.8
"2010-09-16 01:34:30",164650,12.31,109,0.533,0.073,19.79,108.4531,20.92,21.9,22.8,0,110.8,13.2,21.75,71.0
"2010-09-16 01:35:00",164651,12.3,108.8,0.505,0.103,19.81,108.4394,20.89,21.89,22.91,0,110.8,13.2,21.71,70.8
"2010-09-16 01:35:30",164652,12.28,108.2,0.472,0.075,19.83,108.4374,20.88,21.85,23,0,110.8,13.2,21.71,70.2
"2010-09-16 01:36:00",164653,12.3,107.4,0.19,0.056,19.87,108.4374,20.88,21.85,22.81,0,110.8,13.2,21.71,69.4
"2010-09-16 01:36:30",164654,12.26,107,0.513,0.034,19.84,108.4312,20.87,21.82,22.72,0,110.8,13.2,21.69,69.0
"2010-09-16 01:37:00",164655,12.27,106.1,0.309,0.038,19.92,108.4143,20.82,21.8,22.46,0,110.8,13.2,21.65,68.1
"2010-09-16 01:37:30",164656,12.25,106,0.339,0.045,19.91,108.4059,20.8,21.8,22.56,0,110.8,13.2,21.63,68.0
"2010-09-16 01:38:00",164657,12.14,105.9,0.334,0.045,19.92,108.4036,20.8,21.79,22.56,0,110.8,13.2,21.62,67.9
"2010-09-16 01:38:30",164658,12.13,105.4,0.48,0.044,19.95,108.4036,20.8,21.77,22.51,0,110.8,13.2,21.62,67.4
"2010-09-16 01:39:00",164659,12.21,105.2,0.533,0.16,20,108.4036,20.8,21.76,22.53,0,110.8,13.2,21.62,67.2
"2010-09-16 01:39:30",164660,12.35,105.2,0.52,0.072,19.96,108.4036,20.8,21.75,22.61,0,110.8,13.2,21.62,67.2
"2010-09-16 01:40:00",164661,12.3,104.9,0.429,0.065,19.99,108.4036,20.8,21.74,22.53,0,110.8,13.2,21.62,66.9
"2010-09-16 01:40:30",164662,12.28,104.8,0.395,0.047,19.92,108.4034,20.79,21.74,22.59,0,110.8,13.2,21.62,66.8
"2010-09-16 01:41:00",164663,12.3,104.9,0.47,0.079,19.92,108.3997,20.79,21.73,22.7,0,110.8,13.2,21.61,66.9
"2010-09-16 01:41:30",164664,12.4,104.9,0.464,0.061,19.93,108.3944,20.77,21.72,22.76,0,110.8,13.2,21.60,66.9
"2010-09-16 01:42:00",164665,12.41,104.7,0.571,0.043,19.92,108.3856,20.75,21.72,22.8,0,110.8,13.2,21.57,66.7
"2010-09-16 01:42:30",164666,12.38,103.9,0.549,0.058,19.92,108.3727,20.72,21.7,22.86,0,110.8,13.2,21.54,65.9
"2010-09-16 01:43:00",164667,12.34,103.4,0.402,0.066,19.93,108.3699,20.71,21.7,22.88,0,110.8,13.2,21.53,65.4
"2010-09-16 01:43:30",164668,12.44,102.6,0.452,0.055,19.99,108.3699,20.71,21.69,22.88,0,110.8,13.2,21.53,64.6
"2010-09-16 01:44:00",164669,12.29,101.8,0.508,0.091,20,108.3702,20.71,21.69,22.93,0,110.8,13.2,21.53,63.8
"2010-09-16 01:44:30",164670,12.2,101.8,0.508,0.068,20,108.3711,20.71,21.67,22.95,0,110.8,13.2,21.54,63.8
"2010-09-16 01:45:00",164671,12.16,101.5,0.361,0.052,20.02,108.3705,20.71,21.65,22.92,0,110.8,13.2,21.53,63.5
"2010-09-16 01:45:30",164672,12.08,101.4,0.028,0.053,20.04,108.3668,20.7,21.65,22.94,0,110.8,13.21,21.53,63.4
"2010-09-16 01:46:00",164673,12.05,101.3,0.36,0.045,20.03,108.3568,20.68,21.64,22.98,0,110.8,13.21,21.50,63.3
"2010-09-16 01:46:30",164674,11.99,100.7,0.503,0.05,20.06,108.3513,20.66,21.64,23.02,0,110.8,13.21,21.49,62.7
"2010-09-16 01:47:00",164675,11.99,100.9,0.528,0.048,20.05,108.3487,20.65,21.63,23.04,0,110.8,13.21,21.48,62.9
"2010-09-16 01:47:30",164676,12.05,100.4,0.034,0.054,20.11,108.3495,20.66,21.62,23.08,0,110.8,13.21,21.48,62.4
"2010-09-16 01:48:00",164677,12.01,100.3,0.102,0.131,20.12,108.3553,20.67,21.62,23.06,0,110.8,13.21,21.50,62.3
"2010-09-16 01:48:30",164678,11.93,100.3,0.284,0.049,20.16,108.3587,20.68,21.61,23.06,0,110.8,13.21,21.50,62.3
"2010-09-16 01:49:00",164679,12.11,100.5,0.316,0.079,20.07,108.3599,20.68,21.61,23.02,0,110.8,13.21,21.51,62.5